• In United Kingdom
  • List of Countries
  • For 7 days
  • Water Temperature
  • Satellite Maps
  • Weather Map
  • Weather Widgets
  • user-avatar
    Login

    Hourly Weather Algiers

    Today, 22 July, Saturday

    Time Temperature Precipitation Wind Pressure Humidity
    00:00 +28°C° 0 mm 1 mps 747 mmHg 63%
    01:00 +28°C° 0 mm 1 mps 746 mmHg 63%
    02:00 +28°C° 0 mm 1 mps 746 mmHg 62%
    03:00 +28°C° 0 mm 1 mps 746 mmHg 62%
    04:00 +28°C° 0 mm 1 mps 746 mmHg 63%
    05:00 +28°C° 0 mm 1 mps 747 mmHg 64%
    06:00 +29°C° 0 mm 1 mps 747 mmHg 63%
    07:00 +30°C° 0 mm 1 mps 747 mmHg 59%
    08:00 +31°C° 0 mm 1 mps 747 mmHg 54%
    09:00 +32°C° 0 mm 2 mps 747 mmHg 50%
    10:00 +34°C° 0 mm 2 mps 747 mmHg 47%
    11:00 +35°C° 0 mm 2 mps 747 mmHg 44%
    12:00 +36°C° 0 mm 2 mps 747 mmHg 41%
    13:00 +36°C° 0 mm 2 mps 747 mmHg 42%
    14:00 +36°C° 0 mm 2 mps 747 mmHg 43%
    15:00 +36°C° 0 mm 2 mps 747 mmHg 44%
    16:00 +35°C° 0 mm 2 mps 747 mmHg 46%
    17:00 +35°C° 0 mm 3 mps 748 mmHg 48%
    18:00 +34°C° 0 mm 3 mps 748 mmHg 49%
    19:00 +34°C° 0 mm 3 mps 748 mmHg 50%
    20:00 +34°C° 0 mm 3 mps 748 mmHg 50%
    21:00 +32°C° 0 mm 2 mps 749 mmHg 51%
    22:00 +32°C° 0 mm 2 mps 749 mmHg 49%
    23:00 +32°C° 0 mm 2 mps 749 mmHg 47%

    Tomorrow, 23 July, Sunday

    Time Temperature Precipitation Wind Pressure Humidity
    00:00 +32°C° 0 mm 2 mps 748 mmHg 45%
    01:00 +32°C° 0 mm 2 mps 748 mmHg 45%
    02:00 +32°C° 0 mm 2 mps 748 mmHg 45%
    03:00 +32°C° 0 mm 2 mps 748 mmHg 44%
    04:00 +34°C° 0 mm 3 mps 748 mmHg 38%
    05:00 +35°C° 0 mm 4 mps 749 mmHg 32%
    06:00 +36°C° 0 mm 5 mps 749 mmHg 26%
    07:00 +39°C° 0 mm 5 mps 749 mmHg 24%
    08:00 +41°C° 0 mm 5 mps 749 mmHg 23%
    09:00 +42°C° 0 mm 6 mps 749 mmHg 21%
    10:00 +44°C° 0 mm 6 mps 749 mmHg 21%
    11:00 +45°C° 0 mm 6 mps 749 mmHg 22%
    12:00 +46°C° 0 mm 6 mps 749 mmHg 22%
    13:00 +43°C° 0 mm 5 mps 748 mmHg 26%
    14:00 +42°C° 0 mm 4 mps 748 mmHg 30%
    15:00 +41°C° 0 mm 4 mps 748 mmHg 33%
    16:00 +39°C° 0 mm 3 mps 748 mmHg 40%
    17:00 +37°C° 0 mm 3 mps 748 mmHg 46%
    18:00 +36°C° 0 mm 3 mps 748 mmHg 52%
    19:00 +35°C° 0 mm 2 mps 749 mmHg 56%
    20:00 +34°C° 0 mm 2 mps 749 mmHg 60%
    21:00 +32°C° 0 mm 1 mps 750 mmHg 64%
    22:00 +32°C° 0 mm 1 mps 750 mmHg 65%
    23:00 +31°C° 0 mm 1 mps 749 mmHg 66%

    Day after tomorrow, 24 July, Monday

    Time Temperature Precipitation Wind Pressure Humidity
    00:00 +31°C° 0 mm 1 mps 749 mmHg 67%
    01:00 +30°C° 0 mm 1 mps 749 mmHg 70%
    02:00 +29°C° 0 mm 2 mps 749 mmHg 73%
    03:00 +29°C° 0 mm 2 mps 748 mmHg 76%
    04:00 +28°C° 0 mm 1 mps 748 mmHg 78%
    05:00 +28°C° 0 mm 1 mps 748 mmHg 80%
    06:00 +28°C° 0 mm 1 mps 748 mmHg 82%
    07:00 +29°C° 0 mm 1 mps 749 mmHg 73%
    08:00 +31°C° 0 mm 1 mps 749 mmHg 65%
    09:00 +32°C° 0 mm 1 mps 749 mmHg 57%
    10:00 +35°C° 0 mm 2 mps 749 mmHg 51%
    11:00 +36°C° 0 mm 2 mps 748 mmHg 46%
    12:00 +38°C° 0 mm 3 mps 748 mmHg 40%
    13:00 +37°C° 0 mm 3 mps 748 mmHg 40%
    14:00 +37°C° 0 mm 3 mps 748 mmHg 39%
    15:00 +37°C° 0 mm 4 mps 747 mmHg 39%
    16:00 +36°C° 0 mm 4 mps 747 mmHg 45%
    17:00 +34°C° 0 mm 4 mps 748 mmHg 51%
    18:00 +33°C° 0 mm 4 mps 748 mmHg 57%
    19:00 +30°C° 0 mm 3 mps 748 mmHg 64%
    20:00 +29°C° 0 mm 3 mps 748 mmHg 70%
    21:00 +28°C° 0 mm 3 mps 748 mmHg 76%
    22:00 +28°C° 0 mm 3 mps 748 mmHg 76%
    23:00 +27°C° 0 mm 3 mps 748 mmHg 77%

    25 July, Tuesday

    Time Temperature Precipitation Wind Pressure Humidity
    00:00 +27°C° 0 mm 2 mps 748 mmHg 77%
    01:00 +26°C° 0 mm 2 mps 748 mmHg 77%
    02:00 +26°C° 0 mm 2 mps 747 mmHg 77%
    03:00 +26°C° 0 mm 2 mps 747 mmHg 77%
    04:00 +26°C° 0 mm 2 mps 747 mmHg 73%
    05:00 +27°C° 0 mm 2 mps 747 mmHg 69%
    06:00 +27°C° 0 mm 2 mps 747 mmHg 64%
    07:00 +29°C° 0 mm 3 mps 747 mmHg 55%
    08:00 +31°C° 0 mm 3 mps 747 mmHg 46%
    09:00 +34°C° 0 mm 4 mps 747 mmHg 37%
    10:00 +35°C° 0 mm 4 mps 746 mmHg 35%
    11:00 +36°C° 0 mm 5 mps 746 mmHg 33%
    12:00 +37°C° 0 mm 5 mps 746 mmHg 32%
    13:00 +37°C° 0 mm 5 mps 746 mmHg 35%
    14:00 +37°C° 0 mm 5 mps 746 mmHg 38%
    15:00 +36°C° 0 mm 6 mps 745 mmHg 41%
    16:00 +35°C° 0 mm 5 mps 745 mmHg 44%
    17:00 +34°C° 0 mm 5 mps 745 mmHg 48%
    18:00 +32°C° 0 mm 5 mps 745 mmHg 52%
    19:00 +30°C° 0 mm 5 mps 746 mmHg 57%
    20:00 +29°C° 0 mm 4 mps 746 mmHg 63%
    21:00 +27°C° 0 mm 4 mps 746 mmHg 69%
    22:00 +27°C° 0 mm 3 mps 746 mmHg 70%
    23:00 +26°C° 0 mm 3 mps 746 mmHg 71%

    26 July, Wednesday

    Time Temperature Precipitation Wind Pressure Humidity
    00:00 +26°C° 0 mm 2 mps 746 mmHg 72%
    01:00 +26°C° 0 mm 2 mps 746 mmHg 72%
    02:00 +26°C° 0 mm 3 mps 746 mmHg 71%
    03:00 +25°C° 0 mm 3 mps 746 mmHg 70%
    04:00 +26°C° 0 mm 3 mps 746 mmHg 68%
    05:00 +26°C° 0 mm 3 mps 746 mmHg 66%
    06:00 +27°C° 0 mm 3 mps 746 mmHg 64%
    07:00 +28°C° 0 mm 3 mps 746 mmHg 55%
    08:00 +30°C° 0 mm 3 mps 746 mmHg 47%
    09:00 +33°C° 0 mm 3 mps 747 mmHg 38%
    10:00 +34°C° 0 mm 4 mps 747 mmHg 36%
    11:00 +35°C° 0 mm 5 mps 746 mmHg 33%
    12:00 +36°C° 0 mm 5 mps 746 mmHg 31%
    13:00 +36°C° 0 mm 5 mps 746 mmHg 32%
    14:00 +36°C° 0 mm 5 mps 746 mmHg 32%
    15:00 +36°C° 0 mm 5 mps 746 mmHg 33%
    16:00 +35°C° 0 mm 5 mps 746 mmHg 36%
    17:00 +34°C° 0 mm 5 mps 746 mmHg 39%
    18:00 +32°C° 0 mm 4 mps 746 mmHg 41%
    19:00 +30°C° 0 mm 4 mps 746 mmHg 46%
    20:00 +29°C° 0 mm 3 mps 747 mmHg 51%
    21:00 +28°C° 0 mm 3 mps 747 mmHg 56%
    22:00 +27°C° 0 mm 3 mps 747 mmHg 57%
    23:00 +27°C° 0 mm 2 mps 747 mmHg 57%

    27 July, Thursday

    Time Temperature Precipitation Wind Pressure Humidity
    00:00 +26°C° 0 mm 2 mps 747 mmHg 57%
    01:00 +26°C° 0 mm 2 mps 747 mmHg 58%
    02:00 +26°C° 0 mm 3 mps 747 mmHg 59%
    03:00 +25°C° 0 mm 3 mps 747 mmHg 60%
    04:00 +26°C° 0 mm 3 mps 748 mmHg 59%
    05:00 +26°C° 0 mm 2 mps 748 mmHg 58%
    06:00 +26°C° 0 mm 2 mps 748 mmHg 57%
    07:00 +28°C° 0 mm 3 mps 748 mmHg 49%
    08:00 +30°C° 0 mm 3 mps 749 mmHg 41%
    09:00 +33°C° 0 mm 3 mps 749 mmHg 33%
    10:00 +34°C° 0 mm 4 mps 749 mmHg 30%
    11:00 +35°C° 0 mm 4 mps 749 mmHg 27%
    12:00 +36°C° 0 mm 5 mps 749 mmHg 24%
    13:00 +36°C° 0 mm 5 mps 749 mmHg 24%
    14:00 +36°C° 0 mm 5 mps 748 mmHg 24%
    15:00 +36°C° 0 mm 5 mps 748 mmHg 24%
    16:00 +35°C° 0 mm 5 mps 748 mmHg 26%
    17:00 +34°C° 0 mm 5 mps 748 mmHg 29%
    18:00 +34°C° 0 mm 4 mps 749 mmHg 32%
    19:00 +32°C° 0 mm 4 mps 749 mmHg 36%
    20:00 +30°C° 0 mm 3 mps 749 mmHg 40%
    21:00 +28°C° 0 mm 3 mps 750 mmHg 44%
    22:00 +28°C° 0 mm 3 mps 750 mmHg 43%
    23:00 +28°C° 0 mm 3 mps 750 mmHg 42%
    Show more